www.pogodaiklimat.ru

Погода и климат >> Архив погоды >> Россия >> Приморский край >> Терней


АРХИВ ПОГОДЫ в Тернее

Время (UTC), дата Ветер
(напр.,м/с)
 
Видим.   Явления Облачность Т
(С)
Тd
(С)
f
(%)
Тe
(С)
Тes
(С)
Комфортность P
(гПа)
Po
(гПа)
Тmin
(С)
Tmax
(С)
R
(мм)
R24
(мм)
S
(см)
09 12.03 ЮВ 2 50 км 10/10 300 м
[St]
-0.5 -1.8 91 -4 -4 1006.5 998.8 +3.3
12 12.03 В 1 20 км 10/10 600 м
[Sc]
-0.9 -2.3 90 -3 -3 1007.6 999.8
15 12.03 В 2 20 км 10/10 600 м
[Sc]
-1.0 -3.5 83 -5 -5 1007.4 999.6
18 12.03 В 2 20 км 10/10 600 м
[Sc]
-1.1 -4.3 79 -5 -5 1006.5 998.7
21 12.03 В 2 20 км 10/10 600 м
[Sc]
-1.6 -4.3 82 -5 -5 1005.3 997.5 -1.8
00 13.03 СВ 2 50 км {снег} 10/0
[As op]
-0.3 -5.2 69 -4 -3 1005.2 997.4
03 13.03 СВ 1 10 км слаб. снег 10/0
[As op]
+1.1 -3.2 73 -1 +2 1003.6 995.9
06 13.03 СВ 2 10 км слаб. снег 10/0
[As op]
-0.1 -4.1 74 -4 -3 1003.3 995.6
09 13.03 В 2
{10}
10 км слаб. снег 10/0
[As op]
-1.5 -3.8 84 -5 -5 1005.3 997.5 +1.4 0.5
12 13.03 СВ 1
{10}
4000 м слаб. снег 10/10 300 м
[Frnb Ns]
-2.1 -3.4 91 -4 -4 1006.6 998.8
15 13.03 СЗ 1 4000 м слаб. снег 10/10 300 м
[Frnb Ns]
-2.5 -3.5 93 -5 -5 1007.0 999.2
18 13.03 штиль 0 20 км {снег} 4/4 600 м
[Sc]
-3.2 -4.1 93 -4 -4 1007.8 1000.0
21 13.03 штиль 0 4000 м слаб. снег 10/10 300 м
[Frnb Ns]
-3.2 -4.0 94 -4 -4 1010.2 1002.3 -3.4 2 3
00 14.03 штиль 0 50 км {снег} 8/0
[Ac trans Ci sp]
+1.7 -2.9 71 +1 +6 1011.9 1004.2
03 14.03 ЮВ 1 50 км 8/8 600 м
[Sc]
+3.0 -3.6 62 +2 +4 1012.3 1004.6
06 14.03 СЗ 5 50 км 8/8 600 м
[Sc]
+5.4 -8.3 36 +2 +2 1012.2 1004.6
09 14.03 СЗ 3 50 км 6/6 600 м
[Sc]
+1.7 -5.6 58 -2 -2 1014.7 1007.0 +5.6 0.0
12 14.03 З 4 20 км 3/3 600 м
[Sc]
-0.0 -7.5 57 -5 -5 1016.6 1008.8
15 14.03 СЗ 2 20 км 6/0
[Ac trans]
-3.0 -7.0 74 -7 -7 1017.1 1009.2
18 14.03 С 2 20 км 10/0
[Ac und]
-2.6 -6.4 75 -6 -6 1016.6 1008.7
21 14.03 СЗ 2 50 км 10/0
[Ac und]
-4.1 -7.0 80 -8 -8 1016.8 1008.9 -4.1
00 15.03 С 2 50 км 8/0
[Ci fib]
+0.9 -6.4 58 -2 +3 1016.8 1009.0 -4.7
03 15.03 ЮВ 4 50 км 9/4 1000 м
[Cb cap Ci sp]
+2.1 -3.3 67 -3 +1 1015.1 1007.4
06 15.03 ЮВ 4 50 км {ливн. осадки} 4/3 1000 м
[Cu med, cong Ci sp]
+2.4 -6.2 53 -2 +1 1013.7 1006.0
09 15.03 В 1 50 км 6/6 600 м
[Sc]
-0.0 -3.9 75 -2 -2 1014.1 1006.3 +5.3 0.0
12 15.03 СЗ 1 20 км в посл. час ливневой снег 8/8 600 м
[Sc]
-1.3 -2.7 90 -4 -4 1014.7 1006.9
15 15.03 СЗ 2 20 км ясно -2.8 -3.9 92 -7 -7 1013.9 1006.0
18 15.03 СЗ 3 20 км ясно -4.7 -5.8 92 -10 -10 1013.7 1005.8
21 15.03 З 4 50 км 9/9 600 м
[Sc]
-3.1 -6.5 77 -9 -9 1014.5 1006.6 -5.1 0.0
00 16.03 СЗ 5 50 км ясно +1.7 -5.5 59 -3 -0 1014.7 1007.0
03 16.03 ЮВ 3 50 км 8/8 600 м
[Cu hum]
+3.4 -6.6 48 0 +2 1013.5 1005.8
06 16.03 ЮВ 3 50 км в посл. час ливневой снег 6/6 600 м
[Cb cap]
+0.8 -3.8 71 -3 -2 1013.1 1005.3
09 16.03 штиль 0 50 км {ливн. осадки} 3/3 600 м
[Sc]
-0.8 -2.8 86 -2 -2 1014.3 1006.5 +6.1 0.0
12 16.03 З 1 20 км {ливн. осадки} 3/0
[Ci fib]
-2.9 -5.2 84 -5 -5 1015.7 1007.8
15 16.03 З 5 20 км ясно -3.8 -8.6 69 -10 -10 1015.7 1007.8
18 16.03 З 6 20 км ясно -3.1 -9.6 61 -10 -10 1015.7 1007.8
21 16.03 СЗ 3 50 км ясно -7.5 -10.6 78 -13 -13 1016.3 1008.2 -7.5 0.0
00 17.03 СЗ 5 50 км 3/0
[Ci fib]
+2.0 -8.3 46 -3 0 1016.3 1008.5
03 17.03 ЮВ 2 50 км 8/4 600 м
[Sc diur, vesp Ci fib]
+6.0 -10.2 30 +5 +10 1014.2 1006.6
06 17.03 Ю 1 50 км 8/8 600 м
[Sc diur, vesp Ci fib]
+6.3 -11.3 27 +6 +7 1012.5 1004.9
09 17.03 З 4
{10}
50 км 3/3 600 м
[Sc diur, vesp]
+5.3 -14.8 22 +2 +2 1013.2 1005.5 +7.7
12 17.03 СЗ 2 20 км ясно +0.1 -13.6 35 -3 -3 1014.7 1006.9
15 17.03 З 2 20 км ясно -2.5 -12.1 48 -6 -6 1014.7 1006.8
18 17.03 СЗ 4 20 км ясно -4.2 -11.1 59 -10 -10 1013.7 1005.8
21 17.03 СЗ 4 50 км ясно -5.1 -11.7 60 -11 -11 1012.8 1004.9 -5.4
00 18.03 С 2 50 км ясно +1.9 -10.8 38 -0 +6 1011.7 1004.0
03 18.03 Ю 2 50 км 8/3 600 м
[Sc Ac trans]
+9.2 -10.5 24 +8 +13 1007.8 1000.3
06 18.03 СВ 2 50 км 4/3 600 м
[Sc Cc]
+7.0 -2.0 53 +5 +9 1004.1 996.6
09 18.03 ЮВ 1 50 км 3/0
[Cc]
+0.9 -0.8 88 -1 -1 1003.2 995.5 +10.4
12 18.03 СЗ 1 20 км ясно +0.9 -3.7 71 -1 -1 1003.8 996.1
15 18.03 СЗ 2 20 км ясно +0.5 -6.1 61 -3 -3 1003.9 996.2
18 18.03 СЗ 2 20 км ясно -0.5 -6.1 66 -4 -4 1004.6 996.8
21 18.03 СЗ 2 50 км 3/0
[Cs]
-1.0 -6.0 69 -4 -4 1006.5 998.8 -1.6
00 19.03 СЗ 3 50 км 8/0
[Ac trans]
+9.6 -5.1 35 +8 +11 1008.4 1000.9
03 19.03 З 5
{10}
50 км 10/0
[Ac trans Ci sp]
+14.6 -16.4 10 +14 +16 1008.2 1000.9
06 19.03 З 3
{10}
50 км 8/0
[Ac lent Ci sp]
+15.3 -18.9 8 +15 +18 1008.3 1000.9

 

Местоположение метеостанции Терней (Приморский край, Россия): широта 45.00 долгота 136.60 высота над уровнем моря 62 м.

В архиве по умолчанию представлена погода в Тернее за последнюю неделю. Архивные данные за месяц целиком и за предыдущие месяцы, начиная с января 2011 года, Вы можете получить, выбрав интересующий диапазон дат из раскрывающегося списка и нажав кнопку "Ввод!".


*Определитесь, кто Вы:
робот инопланетянин человек

Внимание! Время в таблицах - всемирное. Для получения местного времени необходимо прибавить поправку, которая равна 10 ч.

Смотрите также архив погоды в соседних городах и на ближайших метеорологических станциях:

Погода в Малой Кеме (Приморский край, Россия) (59 км)
Погода в Рудной Пристани (Приморский край, Россия) (94 км)
Погода в Мельничном (Приморский край, Россия) (100 км)
Погода в Богополе (Приморский край, Россия) (126 км)
Погода в Кавалерово (Приморский край, Россия) (152 км)
Погода в Глубинном (Приморский край, Россия) (156 км)
Погода в Ольге (Приморский край, Россия) (173 км)
Погода в Дальнегорске (Приморский край, Россия) (181 км)
Погода в Малиново (Приморский край, Россия) (194 км)
Погода в Красном Яре (Приморский край, Россия) (198 км)

Пояснения к столбцам:

Ветер - указаны скорость ветра в м/с - средняя за 10 мин, порывы в срок и между сроками (в фигурных скобках) и направление, откуда дует ветер: С - северный, СВ - северо-восточный, В - восточный, ЮВ - юго-восточный, Ю - южный, ЮЗ - юго-западный, З - западный, СЗ - северо-западный.
Видимость - горизонтальная дальность видимости в метрах или километрах. При видимости от 1 до 10 км при отсутствии осадков обычно наблюдается дымка, при ухудшении видимости до 1 км и менее - туман. В сухую погоду видимость может ухудшаться дымом, пылью или мглою.
Явления - указаны атмосферные явления, наблюдавшиеся в срок или в последний час перед сроком; фигурными скобками обозначены явления, наблюдавшиеся между сроками (за 1-3 часа до срока); квадратными скобками обозначены град или гололедные отложения с указанием их диаметра в мм.
Облачность - указаны через наклонную черту общая и нижняя облачность в баллах и высота нижней границы облаков в метрах; квадратными скобками обозначены формы облаков: Ci - перистые, Cs - перисто-слоистые, Cc - перисто-кучевые, Ac - высококучевые, As - высокослоистые, Sc - слоисто-кучевые, Ns - слоисто-дождевые, Cu - кучевые, Cb - кучево-дождевые. Подробнее классификацию облаков см. в Атласе облаков (PDF).
T - Температура воздуха - температура, измеренная на высоте 2 м над землей.
Td - Температура точки росы - температура, при понижении до которой содержащийся в воздухе водяной пар достигнет насыщения.
f - Относительная влажность воздуха - влажноcть воздуха, измеренная на высоте 2 м над землей.
Te - Эффективная температура - температура, которую ощущает одетый по сезону человек в тени. Характеристика душности погоды. При расчете учитывается влияние влажности воздуха и скорости ветра на теплоощущения человека.
Tes - Эффективная температура на солнце - температура, которую ощущает человек, с поправкой на солнечный нагрев. Характеристика знойности погоды. Зависит от высоты солнца над горизонтом, облачности и скорости ветра. Ночью, в пасмурную погоду, а также при ветре 12 м/с и более поправка равна нулю.
P - Атмосферное давление - приведенное к уровню моря атмосферное давление.
Po - Атмосферное давление - измеренное на уровне метеостанции атмосферное давление.
Tmin - Минимальная температура - минимум температуры воздуха на высоте 2 м над землей.
Tmax - Максимальная температура - максимум температуры воздуха на высоте 2 м над землей.
R - Количество осадков - Количество выпавших осадков за период времени, мм. При наведении курсора мыши на число - период времени, за который выпало указанное количество осадков.
R24 - Количество осадков - Количество выпавших осадков за 24 часа, мм.
S - Снежный покров - Высота снежного покрова, см. При наведении курсора мыши на число - состояние снежного покрова и степень покрытия местности в баллах.